Theta_e
353 354 355 354 349 349 354 353 347 351 351 349 346 348 348 350 349 345 348 346 345 345 346 343 341 342 341 339 341 339 338 337 337 337 337 339 337 334 331 327 327 331 334 335 335 338 341 342 341
353 353 353 350 349 349 349 349 350 349 349 349 349 348 347 351 350 348 347 346 344 345 342 340 340 341 341 343 342 339 338 339 338 336 335 336 336 335 330 329 334 336 337 336 335 336 340 342 339
352 351 348 347 349 350 351 349 350 348 349 349 350 349 348 348 349 348 347 344 344 344 343 340 340 342 341 340 341 337 337 339 338 338 336 338 339 338 335 333 334 334 336 335 335 336 335 335 334
351 350 346 345 349 351 351 350 346 348 350 350 349 349 349 349 348 348 347 345 344 344 343 342 342 342 340 338 341 338 340 340 338 338 338 339 340 340 338 336 336 336 335 335 337 337 337 338 338
349 347 345 351 350 348 348 348 348 349 348 350 349 349 349 348 347 345 346 345 344 344 344 343 344 343 341 343 343 339 341 337 337 339 339 340 340 341 342 340 339 338 338 339 339 339 338 334 332
347 343 345 350 351 350 350 348 347 346 350 350 349 348 348 348 348 346 345 346 345 345 346 344 344 345 342 340 342 339 338 337 338 338 339 339 340 339 339 340 340 339 338 338 336 334 334 333 333
347 340 344 349 351 353 352 350 349 348 349 349 349 348 346 348 349 348 343 345 346 346 345 345 344 341 341 338 337 336 337 337 338 339 341 341 341 337 336 335 337 337 338 335 333 336 337 339 337
347 340 344 346 350 350 348 349 349 350 349 349 346 346 346 347 349 347 341 340 340 339 339 338 338 340 336 336 341 337 341 339 339 342 343 340 339 335 335 336 331 330 330 329 331 337 339 338 337
345 341 343 347 350 349 349 349 350 350 349 350 348 349 347 346 348 346 343 341 341 339 338 337 335 335 335 335 341 339 340 338 339 341 340 338 339 336 337 336 336 332 329 330 334 338 338 335 338
342 340 341 343 346 348 349 348 350 351 350 349 348 348 347 346 347 347 346 347 345 345 344 344 340 338 337 337 339 340 340 338 339 341 339 337 338 333 335 336 337 338 335 333 331 333 336 337 336
342 341 342 345 346 348 349 350 348 349 350 348 347 347 347 347 347 347 348 347 346 346 346 344 341 341 338 337 337 338 338 337 339 341 340 338 335 340 339 338 338 339 338 338 337 333 332 334 336
343 343 343 347 348 349 350 348 347 347 346 346 345 344 346 347 347 347 348 348 345 346 345 345 345 340 339 338 338 339 339 336 339 340 340 338 335 340 340 340 340 341 340 339 340 340 338 337 338
343 346 344 342 345 347 348 348 347 347 346 346 346 347 346 347 348 348 348 348 347 345 345 344 344 344 344 341 340 340 339 337 339 339 339 338 337 343 341 342 341 340 342 343 342 343 341 342 340
342 348 343 343 342 348 348 348 347 345 346 346 347 347 347 347 348 348 348 347 346 345 346 346 345 344 344 345 343 342 342 338 339 340 340 339 339 342 342 342 341 342 341 343 343 344 341 341 341
343 343 339 339 340 346 348 347 347 345 344 348 348 347 346 346 346 346 346 346 346 345 346 346 346 344 345 345 344 343 343 340 341 342 340 339 337 338 340 340 342 342 342 342 344 342 344 340 340
339 337 339 337 341 344 347 350 342 346 345 349 349 348 347 346 344 344 345 345 345 346 345 344 345 345 345 345 345 345 344 343 342 343 341 340 338 338 342 342 340 342 339 341 342 338 335 339 340
324 332 337 337 341 344 347 348 344 346 344 346 348 348 348 347 346 346 345 345 345 346 346 344 345 343 343 345 345 345 345 345 343 343 341 341 338 342 342 342 340 344 344 343 341 340 341 341 340
327 324 326 330 334 343 347 349 344 345 344 343 344 345 347 347 346 345 346 346 346 345 346 344 343 343 342 343 345 345 345 344 343 343 340 340 339 343 343 342 342 344 340 343 344 343 342 341 342
323 324 325 326 327 339 344 346 344 345 345 344 342 342 343 344 344 346 347 347 347 345 345 344 344 343 342 341 343 344 345 344 343 343 340 338 338 342 341 340 340 339 343 343 344 343 342 343 341
323 324 324 325 327 336 344 347 345 343 345 345 343 341 341 341 342 344 346 346 346 345 344 345 344 344 342 341 342 343 344 344 342 341 340 335 341 339 339 338 340 342 342 343 344 345 343 343 343
322 323 324 324 328 343 341 342 338 342 345 346 344 342 342 343 343 345 345 344 346 345 344 345 344 344 342 341 343 344 343 342 342 340 337 335 341 338 338 338 340 344 343 345 344 344 343 342 342
323 323 324 324 325 325 341 337 326 332 340 343 345 344 344 343 343 344 343 343 343 345 344 344 344 344 341 342 342 343 342 342 342 340 337 338 340 339 339 340 343 342 341 341 346 343 342 339 337
324 324 323 325 324 324 325 326 324 337 334 338 342 344 345 344 343 343 342 341 342 344 343 344 344 343 340 342 342 342 342 343 341 339 340 341 343 343 341 340 338 344 344 345 346 346 343 346 344
324 323 320 319 320 322 322 325 325 327 331 336 342 343 345 345 342 342 342 341 342 344 343 343 344 343 340 342 343 342 343 343 342 338 338 341 344 344 340 338 341 342 344 343 342 346 343 339 345
320 319 323 324 321 322 319 326 324 325 325 331 338 343 344 345 343 343 342 342 342 343 344 343 344 343 338 342 342 342 342 341 340 336 339 340 343 343 341 340 344 344 342 340 343 347 344 340 340
322 320 322 326 323 322 319 324 323 325 332 336 334 339 343 344 344 343 342 342 342 343 343 343 343 343 337 339 340 338 341 342 339 341 341 340 340 338 341 343 346 346 344 339 339 340 345 344 341
324 320 319 317 315 319 318 319 322 327 331 336 337 338 340 343 345 343 341 343 342 343 343 342 343 343 338 337 338 337 339 341 339 341 341 337 334 338 340 343 345 344 341 344 343 342 342 343 343
322 318 320 314 322 322 319 322 323 323 328 330 335 337 339 340 343 341 340 344 343 342 343 343 344 343 342 336 337 337 337 338 339 342 342 341 341 341 343 343 342 342 342 343 343 344 343 343 341
318 318 313 314 314 318 319 320 318 326 326 325 328 334 337 339 340 341 343 344 343 343 343 343 343 343 344 338 336 339 337 337 339 343 345 343 340 343 344 345 344 344 344 345 342 344 344 343 341
320 320 313 317 319 314 315 319 319 324 327 329 332 335 337 337 338 341 344 344 344 344 344 344 344 343 344 344 336 337 342 339 339 343 344 344 344 342 343 346 345 343 341 344 344 345 342 343 342
Wind_Speed
6 7 5 2 4 5 2 1 1 4 3 2 11 3 5 4 2 3 9 22 22 22 21 18 16 15 15 13 11 11 12 12 13 14 14 15 15 15 17 20 17 12 10 8 10 9 8 7 6
11 8 3 2 4 3 3 1 3 3 2 6 7 4 4 1 1 6 23 20 23 22 21 19 18 16 14 13 9 9 10 10 11 11 13 13 14 15 16 17 15 11 8 9 10 9 8 9 6
11 8 3 4 3 2 0 2 3 5 6 4 2 6 2 1 5 19 20 26 23 22 20 18 17 15 14 13 11 10 9 9 10 11 12 13 13 14 16 15 13 12 10 9 8 7 10 9 9
13 4 4 5 2 2 2 2 4 5 5 6 4 5 3 6 12 18 23 25 23 21 19 17 16 14 13 12 10 9 10 10 11 11 10 8 8 5 12 13 13 12 12 10 9 8 7 8 7
9 4 4 3 1 2 3 4 4 2 6 8 5 3 3 11 10 16 22 23 21 20 17 17 15 13 12 12 9 9 9 9 9 8 8 8 5 8 10 11 11 12 11 11 9 7 7 6 4
4 2 4 1 3 2 3 7 4 3 5 6 5 6 5 8 10 17 20 21 20 18 16 16 14 13 12 11 10 9 8 7 6 6 6 7 7 9 8 6 8 9 10 9 8 8 7 6 5
4 3 1 1 2 3 3 8 5 3 7 4 12 3 3 10 13 19 20 20 18 17 16 16 16 14 12 11 10 8 7 7 6 5 5 7 9 12 8 6 7 7 7 8 8 9 7 5 5
2 3 1 3 2 3 1 6 1 4 4 14 9 5 5 15 19 21 21 19 17 17 16 15 15 14 13 11 9 9 7 6 5 5 9 9 12 10 8 8 6 7 7 8 8 9 8 7 5
2 3 2 3 3 3 3 3 1 4 12 4 6 4 4 20 24 22 21 20 17 16 14 13 13 12 12 12 11 10 9 7 6 9 10 11 8 8 7 7 7 7 6 7 9 9 9 9 6
3 3 4 3 2 2 2 4 6 4 4 2 4 4 13 23 24 24 22 21 20 19 17 14 14 12 12 13 12 11 10 9 7 9 7 11 9 8 7 5 5 7 7 8 9 10 10 9 7
2 3 1 3 5 5 3 5 4 10 3 9 14 17 26 24 24 23 20 18 15 15 15 16 15 15 14 15 13 11 9 9 8 10 9 11 9 9 5 4 5 7 8 7 7 10 10 10 8
4 3 2 3 2 1 3 5 4 11 6 7 14 20 25 25 25 23 21 21 19 16 14 14 15 16 16 15 12 12 11 10 9 9 9 10 9 7 5 4 6 5 7 8 8 7 9 7 7
1 2 2 3 5 5 4 3 4 11 11 10 17 24 23 22 23 22 19 16 17 16 16 15 14 15 13 12 12 13 12 10 9 10 10 11 9 7 6 4 8 8 8 6 6 8 8 7 8
4 4 3 3 4 3 4 2 2 6 12 16 20 26 24 22 22 21 21 19 18 14 15 15 16 15 14 14 12 12 12 11 11 10 10 13 10 8 5 5 10 9 7 5 7 7 9 8 9
2 4 6 4 3 3 4 6 9 8 13 21 22 24 24 22 21 22 20 20 17 15 12 13 14 14 15 15 15 13 12 13 12 10 11 13 10 8 5 7 9 6 6 7 5 4 7 9 8
3 3 5 3 3 3 6 9 5 12 18 22 23 24 24 24 22 21 21 20 18 17 14 13 15 13 14 15 17 16 17 13 13 12 13 11 10 6 5 8 8 4 5 7 6 5 7 8 9
6 3 3 7 10 3 5 8 2 17 21 23 26 27 27 26 25 21 20 20 19 16 16 14 14 13 12 16 17 18 17 16 15 14 11 13 10 10 5 6 8 7 5 6 6 7 9 9 11
4 5 5 8 3 4 5 19 7 12 23 27 29 30 30 27 27 27 26 21 19 18 17 15 14 13 12 15 17 16 16 18 17 16 13 16 14 9 9 8 6 7 7 6 4 6 10 9 10
3 4 6 18 8 6 11 15 18 11 20 17 26 31 32 33 24 21 25 24 24 21 20 19 17 13 13 15 18 18 19 20 18 19 16 16 14 12 12 5 10 9 7 5 5 7 10 9 10
4 5 9 12 6 8 3 13 11 9 12 26 27 29 32 28 28 29 27 27 25 24 23 21 18 14 11 12 14 17 18 18 17 19 20 17 14 15 13 5 11 10 7 5 5 3 5 12 9
4 5 5 7 6 1 3 7 7 2 10 17 29 29 30 27 26 28 29 29 28 27 25 22 18 13 11 12 15 18 18 17 20 22 21 18 16 14 9 6 10 10 7 4 4 4 5 6 7
6 6 5 7 1 4 4 6 5 4 7 7 18 26 27 28 29 30 31 30 31 29 25 20 18 15 11 15 17 20 22 22 22 21 19 18 16 15 9 8 11 8 9 5 3 2 3 1 2
9 4 5 4 3 2 2 2 8 4 8 8 15 26 30 29 32 35 33 31 32 29 19 21 19 16 14 18 18 20 21 21 22 20 19 19 16 14 10 14 9 9 6 5 3 2 3 5 4
4 4 3 3 3 3 3 3 9 3 6 5 5 23 31 32 34 35 32 30 32 31 21 12 22 18 16 20 21 20 21 20 22 22 21 20 17 15 12 17 13 8 5 5 4 3 2 1 3
4 5 4 5 5 6 3 1 9 10 9 7 8 17 30 34 30 34 36 34 33 34 34 18 20 22 20 23 23 21 21 19 23 21 21 21 18 16 16 16 13 10 7 8 7 4 4 4 4
5 7 5 4 3 6 2 4 6 6 15 10 9 9 18 34 33 33 34 35 36 35 36 32 20 25 23 24 24 22 23 21 22 21 20 21 20 15 17 15 13 12 9 8 8 8 6 6 7
2 4 4 5 3 1 3 8 10 3 8 1 5 11 21 28 37 36 35 37 37 35 36 24 27 25 25 24 25 25 25 23 24 22 20 19 21 17 16 15 14 12 12 9 7 6 7 9 9
5 6 2 3 2 3 5 5 6 10 11 3 6 14 19 24 32 33 35 37 39 38 36 40 27 29 25 25 26 26 25 24 24 21 20 19 17 15 13 13 14 14 14 14 12 10 10 11 11
2 1 6 4 4 5 2 6 7 7 10 11 9 12 19 24 27 32 34 36 37 37 37 40 37 30 28 25 27 27 27 25 25 22 19 20 22 20 17 14 14 14 17 19 17 13 12 12 11
2 3 5 5 4 1 3 6 4 7 9 13 19 10 9 20 22 28 32 34 37 38 36 37 40 34 29 24 27 29 26 27 28 24 21 18 18 19 18 17 15 16 17 20 19 18 15 14 13
Wind_Direction
357 353 356 61 53 63 92 139 179 307 350 270 145 212 144 94 168 203 149 158 161 163 161 154 152 146 141 134 128 129 137 141 140 142 147 152 150 160 169 174 173 170 175 174 180 181 183 175 187
8 4 14 49 70 52 300 335 243 239 253 350 87 93 53 100 203 148 147 157 160 161 157 159 157 155 151 136 127 137 139 148 148 150 147 152 153 162 165 170 178 179 179 193 194 205 199 198 220
358 4 27 77 75 119 141 212 274 315 299 265 91 61 90 228 213 159 156 156 161 161 162 163 163 161 163 153 152 147 146 153 149 157 152 163 167 167 175 193 200 203 208 203 201 204 210 221 239
1 7 58 76 100 255 242 265 217 318 343 199 146 81 64 330 153 151 156 158 163 165 165 167 169 168 165 161 159 155 155 154 157 157 165 167 163 160 188 195 203 204 214 213 215 219 224 231 237
1 35 54 59 312 247 249 250 193 270 325 143 154 110 88 122 139 152 159 161 168 169 171 170 167 170 168 164 164 163 159 158 155 161 174 174 191 169 186 200 202 204 213 211 207 204 204 221 209
46 53 57 76 292 246 245 214 191 227 118 155 129 114 166 182 165 159 160 163 171 177 174 173 171 172 173 171 168 168 163 159 159 179 189 191 167 146 141 183 194 197 199 196 189 184 169 167 172
98 77 186 195 262 304 221 164 193 183 155 180 151 116 185 174 177 170 162 164 169 180 179 177 174 175 177 177 177 175 167 172 172 185 189 190 176 154 158 172 184 189 195 189 181 175 173 192 206
80 92 92 245 220 261 143 147 160 87 171 153 162 183 195 175 174 168 166 171 176 183 184 182 182 184 186 180 172 180 170 182 174 169 163 159 143 161 163 166 166 188 191 185 179 179 184 200 204
181 68 257 231 182 267 153 132 84 101 135 149 198 233 249 167 170 171 174 179 182 182 192 190 195 193 187 183 181 184 174 184 171 151 157 171 166 168 175 165 163 185 178 182 181 190 193 191 201
129 109 233 218 206 235 182 162 149 135 140 96 168 198 172 168 171 174 178 179 181 184 186 192 193 192 193 189 192 189 186 189 171 166 159 176 176 167 157 157 176 179 175 181 191 203 201 203 215
174 210 276 293 255 274 197 137 185 153 189 198 177 163 169 174 181 184 186 192 191 194 194 190 190 196 207 204 196 189 193 194 179 171 172 180 173 156 163 176 184 197 189 199 200 206 208 206 210
320 297 171 283 312 159 182 160 190 191 211 212 190 171 174 185 191 195 200 198 193 207 203 201 198 200 207 206 202 194 195 198 184 179 182 184 175 174 186 202 194 199 193 206 215 218 217 216 211
232 260 302 306 304 290 207 205 221 230 236 201 183 180 182 189 196 203 211 217 211 211 211 208 206 200 204 195 198 195 196 195 188 186 188 182 178 181 191 232 212 197 214 210 224 214 209 201 201
320 286 275 255 285 257 220 214 222 262 212 188 188 189 194 198 202 206 217 221 224 219 224 216 214 203 213 207 206 199 198 193 189 187 196 182 185 196 213 242 207 204 218 196 210 224 220 218 219
333 312 331 258 232 244 216 280 236 230 190 183 189 195 199 202 207 216 223 225 227 224 226 226 220 212 215 214 218 212 204 196 195 190 180 192 192 208 250 213 202 204 197 192 201 227 198 205 198
347 46 353 280 155 233 146 274 298 204 185 191 193 202 210 212 212 219 226 228 222 224 221 228 224 220 216 211 216 220 213 208 199 204 198 197 197 207 207 205 200 208 212 200 209 190 184 183 193
9 303 293 314 210 125 180 270 274 192 195 196 202 207 211 217 222 226 226 226 221 219 219 221 224 221 223 224 219 220 213 214 204 202 201 199 183 159 170 165 197 190 182 176 185 170 170 164 167
320 325 298 263 287 223 208 259 236 200 199 201 209 213 215 218 227 234 224 222 224 221 220 221 220 222 229 228 221 219 212 201 202 200 206 191 179 173 142 148 154 161 168 164 172 171 165 172 177
238 242 261 290 255 241 223 250 265 199 218 218 211 215 218 221 227 222 218 221 218 221 222 221 220 222 235 226 212 204 197 199 201 198 199 190 185 178 160 107 168 161 161 162 151 158 177 179 181
222 280 284 282 289 182 149 250 269 203 217 219 219 214 220 220 229 224 217 220 215 217 220 222 224 229 240 226 210 201 192 199 203 195 188 190 186 188 189 180 175 184 167 161 187 208 180 191 191
247 213 274 244 337 275 3 285 260 278 230 229 229 221 219 216 213 207 210 219 214 216 220 219 224 233 234 205 191 190 191 191 188 190 189 185 185 171 179 183 191 179 184 155 154 164 176 185 219
298 182 251 276 156 247 139 287 280 296 281 227 219 215 214 210 208 207 209 216 215 216 219 223 224 229 219 196 188 194 188 188 192 188 187 183 179 189 196 190 165 178 174 149 142 165 193 256 278
238 328 299 308 194 359 307 59 272 342 293 256 220 212 212 209 203 207 211 219 216 211 217 221 222 223 213 196 186 188 189 192 192 193 187 184 187 191 199 185 177 169 157 173 170 152 151 50 45
262 308 37 51 83 7 268 140 287 253 239 287 235 211 212 213 213 212 213 218 219 208 197 225 221 223 212 197 190 191 191 194 198 197 193 190 191 191 186 173 174 182 186 198 213 211 221 335 47
97 58 334 346 2 227 275 76 240 275 271 248 228 213 213 211 215 216 217 217 218 210 200 204 220 220 211 199 196 193 196 199 196 201 200 198 201 199 192 190 193 200 206 217 222 229 245 263 277
190 155 164 237 235 264 293 254 264 228 298 323 244 226 206 211 215 215 219 220 218 211 203 208 211 214 210 203 200 195 192 196 201 205 213 213 208 214 206 208 208 208 215 224 228 234 250 260 267
238 208 188 112 5 40 268 297 302 294 312 82 251 182 197 210 215 219 220 219 218 215 208 207 216 214 211 206 201 197 197 202 203 207 217 220 220 223 210 218 220 214 218 232 240 250 260 270 268
177 163 59 14 197 230 294 283 239 308 313 326 235 222 212 208 212 219 217 220 222 221 213 214 217 213 210 208 204 200 197 198 199 209 212 216 214 217 223 232 228 226 229 237 246 260 262 264 264
70 293 51 121 139 170 205 266 217 260 286 297 276 249 234 216 211 212 216 220 223 219 215 211 213 210 213 210 208 204 203 202 199 203 209 222 221 224 226 227 235 243 247 246 244 249 258 260 261
172 127 133 129 229 220 161 269 244 278 287 299 297 296 257 228 222 218 220 220 219 220 218 214 213 212 215 217 211 212 209 207 206 208 214 211 209 216 225 236 246 256 259 238 237 246 260 264 267